GW1362 Weather Reports


time (UTC)temp
C
wind
direction
speed
KPH
gust
KPH
rain 1hr
cm
rain 24hr
cm
rain mn
cm
humidity
%
barometer
mb
20260508020535 20 117 3.2 9.7 0.00 0.00 0.00 9 1013.1
20260508020049 21 0 3.2 9.7 0.00 0.00 0.00 9 1013.2
20260508015535 21 127 1.6 9.7 0.00 0.00 0.00 9 1013.1
20260508015035 21 146 1.6 14.5 0.00 0.00 0.00 8 1013.0
20260508014548 21 140 4.8 14.5 0.00 0.00 0.00 8 1013.0
20260508014035 21 128 6.4 14.5 0.00 0.00 0.00 8 1013.0
20260508013535 22 157 1.6 9.7 0.00 0.00 0.00 8 1013.0
20260508013046 22 159 4.8 12.9 0.00 0.00 0.00 8 1013.0
20260508012535 22 165 4.8 16.1 0.00 0.00 0.00 8 1012.9
20260508012035 22 156 4.8 16.1 0.00 0.00 0.00 8 1012.9
20260508011550 22 178 6.4 14.5 0.00 0.00 0.00 8 1012.9
20260508011037 23 150 1.6 16.1 0.00 0.00 0.00 9 1012.9
20260508010535 23 160 6.4 16.1 0.00 0.00 0.00 8 1013.0
20260508010054 23 175 4.8 14.5 0.00 0.00 0.00 8 1012.9
20260508005539 23 138 4.8 17.7 0.00 0.00 0.00 8 1013.0
20260508005034 23 147 6.4 17.7 0.00 0.00 0.00 8 1013.1
20260508004553 23 173 8.0 16.1 0.00 0.00 0.00 8 1013.0
20260508004037 24 148 6.4 19.3 0.00 0.00 0.00 8 1013.1
20260508003538 24 198 6.4 19.3 0.00 0.00 0.00 10 1013.1
20260508003052 24 177 3.2 12.9 0.00 0.00 0.00 10 1013.1
20260508002535 24 238 4.8 12.9 0.00 0.00 0.00 11 1013.2
20260508002035 24 0 0.0 17.7 0.00 0.00 0.00 11 1013.2
20260508001551 23 217 8.0 17.7 0.00 0.00 0.00 12 1013.2
20260508001035 23 175 4.8 14.5 0.00 0.00 0.00 12 1013.2
20260508000536 23 211 6.4 16.1 0.00 0.00 0.00 12 1013.2
20260508000050 23 194 8.0 17.7 0.00 0.00 0.00 12 1013.2
20260507235535 24 205 8.0 17.7 0.00 0.00 0.00 13 1013.3
20260507235037 24 255 6.4 20.9 0.00 0.00 0.00 13 1013.2
20260507234558 24 263 11.3 20.9 0.00 0.00 0.00 13 1013.2
20260507234035 25 267 4.8 19.3 0.00 0.00 0.00 13 1013.3
20260507233535 25 149 9.7 19.3 0.00 0.00 0.00 13 1013.3
20260507233049 25 183 6.4 14.5 0.00 0.00 0.00 13 1013.3
20260507232536 25 144 4.8 14.5 0.00 0.00 0.00 13 1013.4
20260507232036 25 192 4.8 11.3 0.00 0.00 0.00 13 1013.4
20260507231553 25 175 1.6 16.1 0.00 0.00 0.00 13 1013.4
20260507231037 25 152 4.8 16.1 0.00 0.00 0.00 13 1013.6
20260507230535 25 188 1.6 14.5 0.00 0.00 0.00 12 1013.6
20260507230056 25 0 4.8 25.7 0.00 0.00 0.00 12 1013.6
20260507225536 25 143 11.3 25.7 0.00 0.00 0.00 12 1013.8
20260507225037 25 163 8.0 19.3 0.00 0.00 0.00 12 1013.8
20260507224551 25 181 3.2 14.5 0.00 0.00 0.00 12 1013.9
20260507224035 25 90 4.8 14.5 0.00 0.00 0.00 12 1014.0
20260507223535 25 139 6.4 19.3 0.00 0.00 0.00 12 1013.9
20260507223056 25 173 6.4 19.3 0.00 0.00 0.00 12 1014.0
20260507222536 25 138 6.4 19.3 0.00 0.00 0.00 12 1014.1
20260507222035 25 248 8.0 14.5 0.00 0.00 0.00 12 1014.2
20260507221552 24 156 6.4 14.5 0.00 0.00 0.00 12 1014.2
20260507221035 24 119 3.2 14.5 0.00 0.00 0.00 11 1014.3
20260507220535 25 202 6.4 14.5 0.00 0.00 0.00 11 1014.4
20260507220054 25 252 3.2 12.9 0.00 0.00 0.00 11 1014.5
20260507215537 24 215 4.8 12.9 0.00 0.00 0.00 11 1014.5
20260507215036 25 346 3.2 11.3 0.00 0.00 0.00 11 1014.6
20260507214552 24 342 1.6 8.0 0.00 0.00 0.00 11 1014.8
20260507214035 23 225 0.0 12.9 0.00 0.00 0.00 11 1015.0
20260507213535 23 283 4.8 17.7 0.00 0.00 0.00 11 1015.2
20260507213049 23 254 8.0 17.7 0.00 0.00 0.00 10 1015.2
20260507212535 23 320 4.8 16.1 0.00 0.00 0.00 10 1015.2
20260507212038 23 0 1.6 16.1 0.00 0.00 0.00 11 1015.4
20260507211551 23 104 9.7 16.1 0.00 0.00 0.00 11 1015.5
20260507211034 23 119 1.6 17.7 0.00 0.00 0.00 11 1015.6
20260507210536 23 122 6.4 17.7 0.00 0.00 0.00 10 1015.7
20260507210047 23 95 4.8 19.3 0.00 0.00 0.00 11 1015.8
20260507205535 23 177 8.0 19.3 0.00 0.00 0.00 11 1016.1
20260507205035 23 196 8.0 17.7 0.00 0.00 0.00 11 1016.1
20260507204552 22 101 6.4 14.5 0.00 0.00 0.00 11 1016.0
20260507204035 22 101 6.4 14.5 0.00 0.00 0.00 10 1016.2
20260507203538 23 102 3.2 12.9 0.00 0.00 0.00 10 1016.1
20260507203057 23 116 4.8 17.7 0.00 0.00 0.00 11 1016.2
20260507202535 22 196 6.4 17.7 0.00 0.00 0.00 11 1016.2
20260507202035 22 143 3.2 22.5 0.00 0.00 0.00 11 1016.3
20260507201545 22 226 11.3 22.5 0.00 0.00 0.00 11 1016.3
20260507201035 22 102 6.4 16.1 0.00 0.00 0.00 11 1016.4
20260507200535 22 224 8.0 16.1 0.00 0.00 0.00 11 1016.5
20260507200050 21 144 4.8 8.0 0.00 0.00 0.00 11 1016.6
20260507195535 21 350 1.6 9.7 0.00 0.00 0.00 11 1016.8
20260507195039 21 349 4.8 14.5 0.00 0.00 0.00 11 1016.9
20260507194551 21 42 3.2 14.5 0.00 0.00 0.00 11 1017.0
20260507194039 21 339 8.0 16.1 0.00 0.00 0.00 11 1017.1
20260507193541 20 93 6.4 16.1 0.00 0.00 0.00 13 1017.3
20260507193055 20 111 4.8 17.7 0.00 0.00 0.00 13 1017.4
20260507192535 20 80 3.2 19.3 0.00 0.00 0.00 12 1017.5
20260507192038 20 46 4.8 19.3 0.00 0.00 0.00 13 1017.7
20260507191548 20 30 4.8 22.5 0.00 0.00 0.00 14 1017.7
20260507191035 20 340 8.0 22.5 0.00 0.00 0.00 14 1017.7
20260507190539 20 57 8.0 19.3 0.00 0.00 0.00 16 1017.7
20260507190049 19 81 6.4 17.7 0.00 0.00 0.00 16 1017.8
20260507185535 19 38 4.8 22.5 0.00 0.00 0.00 16 1017.8
20260507185039 19 40 6.4 22.5 0.00 0.00 0.00 18 1018.0
20260507184554 19 352 11.3 22.5 0.00 0.00 0.00 18 1018.0
20260507184039 19 46 9.7 19.3 0.00 0.00 0.00 17 1018.1
20260507183538 18 44 4.8 17.7 0.00 0.00 0.00 20 1018.4
20260507183055 18 28 6.4 12.9 0.00 0.00 0.00 20 1018.5
20260507182539 18 29 3.2 17.7 0.00 0.00 0.00 21 1018.4
20260507182038 17 80 6.4 17.7 0.00 0.00 0.00 22 1018.6
20260507181549 17 71 6.4 19.3 0.00 0.00 0.00 21 1018.6
20260507181039 17 55 4.8 19.3 0.00 0.00 0.00 22 1018.8
20260507180541 17 18 8.0 17.7 0.00 0.00 0.00 22 1018.8
20260507180049 17 350 4.8 16.1 0.00 0.00 0.00 22 1018.9
20260507175539 16 326 4.8 12.9 0.00 0.00 0.00 22 1019.1
20260507175040 16 46 4.8 22.5 0.00 0.00 0.00 24 1019.1
20260507174605 16 350 3.2 22.5 0.00 0.00 0.00 24 1019.3
20260507174040 16 5 6.4 22.5 0.00 0.00 0.00 25 1019.2
20260507173539 15 78 8.0 25.7 0.00 0.00 0.00 24 1019.5
20260507173059 16 352 4.8 25.7 0.00 0.00 0.00 25 1019.6
20260507172540 15 51 9.7 25.7 0.00 0.00 0.00 25 1019.8
20260507172039 15 38 4.8 22.5 0.00 0.00 0.00 25 1019.9
20260507171609 15 42 6.4 25.7 0.00 0.00 0.00 25 1019.9
20260507171037 15 315 8.0 25.7 0.00 0.00 0.00 25 1020.0
20260507170536 15 352 11.3 25.7 0.00 0.00 0.00 25 1020.0
20260507170056 14 35 9.7 20.9 0.00 0.00 0.00 25 1020.1
20260507165540 14 24 8.0 22.5 0.00 0.00 0.00 26 1020.3
20260507165035 14 347 11.3 22.5 0.00 0.00 0.00 27 1020.4
20260507164605 14 352 9.7 20.9 0.00 0.00 0.00 26 1020.5
20260507164035 14 24 8.0 19.3 0.00 0.00 0.00 26 1020.6
20260507163542 13 5 9.7 20.9 0.00 0.00 0.00 28 1020.7
20260507163051 13 39 9.7 20.9 0.00 0.00 0.00 29 1020.6
20260507162539 13 352 11.3 25.7 0.00 0.00 0.00 33 1020.7
20260507162035 12 32 4.8 29.0 0.00 0.00 0.00 34 1020.8
20260507161550 12 345 12.9 29.0 0.00 0.00 0.00 35 1020.9
20260507161039 12 332 12.9 24.1 0.00 0.00 0.00 36 1021.0
20260507160539 12 335 8.0 20.9 0.00 0.00 0.00 37 1021.3
20260507160058 11 28 8.0 22.5 0.00 0.00 0.00 39 1021.4
20260507155538 11 327 9.7 22.5 0.00 0.00 0.00 40 1021.6
20260507155039 10 5 9.7 24.1 0.00 0.00 0.00 41 1021.6
20260507154552 10 10 6.4 27.4 0.00 0.00 0.00 42 1021.7
20260507154038 10 352 14.5 27.4 0.00 0.00 0.00 43 1021.7
20260507153538 10 332 12.9 27.4 0.00 0.00 0.00 44 1021.7
20260507153052 10 35 8.0 27.4 0.00 0.00 0.00 45 1021.8
20260507152538 9 352 12.9 27.4 0.00 0.00 0.00 45 1021.9
20260507152036 9 333 6.4 20.9 0.00 0.00 0.00 47 1021.9
20260507151549 9 352 8.0 16.1 0.00 0.00 0.00 48 1022.0
20260507151039 8 11 6.4 17.7 0.00 0.00 0.00 50 1021.9
20260507150539 8 352 6.4 17.7 0.00 0.00 0.00 50 1022.1
20260507150054 8 32 6.4 16.1 0.00 0.00 0.00 52 1022.1
20260507145535 8 33 4.8 14.5 0.00 0.00 0.00 53 1022.2
20260507145040 7 9 4.8 16.1 0.00 0.00 0.00 53 1022.3
20260507144550 7 55 4.8 16.1 0.00 0.00 0.00 54 1022.3
20260507144039 7 20 3.2 16.1 0.00 0.00 0.00 55 1022.4
20260507143538 7 80 8.0 16.1 0.00 0.00 0.00 56 1022.4
20260507143055 6 30 3.2 12.9 0.00 0.00 0.00 57 1022.4
20260507142540 6 360 3.2 12.9 0.00 0.00 0.00 59 1022.5
20260507142039 6 68 4.8 11.3 0.00 0.00 0.00 60 1022.5
20260507141554 6 15 4.8 11.3 0.00 0.00 0.00 61 1022.4
20260507141039 5 53 3.2 8.0 0.00 0.00 0.00 62 1022.5
20260507140538 5 22 3.2 8.0 0.00 0.00 0.00 64 1022.6
20260507140051 5 11 3.2 8.0 0.00 0.00 0.00 65 1022.7
20260507135539 4 57 1.6 8.0 0.00 0.00 0.00 67 1022.8
20260507135040 3 53 1.6 11.3 0.00 0.00 0.00 69 1022.9
20260507134555 3 22 4.8 11.3 0.00 0.00 0.00 71 1022.8
20260507134038 2 62 1.6 8.0 0.00 0.00 0.00 73 1023.0
20260507133539 2 0 1.6 4.8 0.00 0.00 0.00 74 1023.0
20260507133057 1 0 0.0 3.2 0.00 0.00 0.00 76 1022.9
20260507132538 1 0 0.0 0.0 0.00 0.00 0.00 77 1023.0
20260507132038 1 0 0.0 3.2 0.00 0.00 0.00 79 1023.0
20260507131546 0 0 0.0 3.2 0.00 0.00 0.00 81 1023.0
20260507131040 0 57 0.0 3.2 0.00 0.00 0.00 82 1023.0
20260507130543 0 0 0.0 3.2 0.00 0.00 0.00 84 1022.9
20260507130051 0 0 0.0 3.2 0.00 0.00 0.00 84 1022.7
20260507125538 -1 0 0.0 1.6 0.00 0.00 0.00 83 1022.8
20260507125041 -1 0 0.0 1.6 0.00 0.00 0.00 83 1022.8
20260507124553 -1 0 0.0 1.6 0.00 0.00 0.00 82 1022.8
20260507124035 -1 0 0.0 0.0 0.00 0.00 0.00 82 1022.9
20260507123539 -1 0 0.0 0.0 0.00 0.00 0.00 81 1022.8
20260507123051 -1 0 0.0 0.0 0.00 0.00 0.00 80 1022.6
20260507122543 -1 0 0.0 0.0 0.00 0.00 0.00 79 1022.7
20260507122043 -1 0 0.0 4.8 0.00 0.00 0.00 79 1022.8
20260507121556 -1 0 0.0 4.8 0.00 0.00 0.00 79 1022.8
20260507121042 -1 76 0.0 4.8 0.00 0.00 0.00 79 1022.7
20260507120538 -1 0 0.0 0.0 0.00 0.00 0.00 79 1022.7
20260507120050 -1 0 0.0 3.2 0.00 0.00 0.00 79 1022.8
20260507115539 -1 0 0.0 4.8 0.00 0.00 0.00 79 1022.8
20260507115038 -1 0 1.6 4.8 0.00 0.00 0.00 79 1022.8
20260507114549 -1 72 3.2 4.8 0.00 0.00 0.00 77 1022.8
20260507114041 0 72 3.2 4.8 0.00 0.00 0.00 77 1022.7
20260507113539 0 83 0.0 1.6 0.00 0.00 0.00 76 1022.6
20260507113052 0 0 0.0 3.2 0.00 0.00 0.00 76 1022.6
20260507112539 0 0 0.0 3.2 0.00 0.00 0.00 76 1022.6
20260507112039 0 83 0.0 3.2 0.00 0.00 0.00 76 1022.6
20260507111549 0 83 0.0 3.2 0.00 0.00 0.00 75 1022.6
20260507111039 0 0 0.0 3.2 0.00 0.00 0.00 74 1022.5
20260507110539 1 83 0.0 3.2 0.00 0.00 0.00 74 1022.4
20260507110105 1 0 0.0 3.2 0.00 0.00 0.00 76 1022.2
20260507105538 1 0 0.0 3.2 0.00 0.00 0.00 75 1022.1
20260507105039 1 83 0.0 3.2 0.00 0.00 0.00 75 1021.9
20260507104550 1 0 0.0 3.2 0.00 0.00 0.00 76 1021.9
20260507104135 1 83 0.0 6.4 0.00 0.00 0.00 76 1021.9
20260507103539 1 0 0.0 6.4 0.00 0.00 0.00 76 1022.0
20260507103054 1 88 3.2 6.4 0.00 0.00 0.00 74 1022.0
20260507102539 2 0 0.0 4.8 0.00 0.00 0.00 73 1021.9
20260507102035 2 326 1.6 6.4 0.00 0.00 0.00 74 1021.9
20260507101549 2 0 0.0 9.7 0.00 0.00 0.00 75 1022.0
20260507101040 2 77 3.2 11.3 0.00 0.00 0.00 74 1022.1
20260507100542 2 115 4.8 11.3 0.00 0.00 0.00 74 1022.1
20260507100045 2 116 6.4 11.3 0.00 0.00 0.00 73 1021.9
20260507095539 2 87 4.8 9.7 0.00 0.00 0.00 74 1022.0
20260507095038 2 84 4.8 8.0 0.00 0.00 0.00 73 1022.0
20260507094608 2 68 4.8 9.7 0.00 0.00 0.00 73 1021.8
20260507094038 2 58 6.4 9.7 0.00 0.00 0.00 74 1021.8
20260507093537 2 43 4.8 6.4 0.00 0.00 0.00 74 1021.9
20260507093057 2 74 3.2 6.4 0.00 0.00 0.00 73 1021.9
20260507092536 2 74 3.2 6.4 0.00 0.00 0.00 73 1021.9
20260507092038 2 80 3.2 9.7 0.00 0.00 0.00 73 1021.9
20260507091609 2 56 3.2 9.7 0.00 0.00 0.00 73 1021.8
20260507091035 2 71 4.8 8.0 0.00 0.00 0.00 72 1021.9
20260507090535 2 76 3.2 6.4 0.00 0.00 0.00 72 1021.7
20260507090057 2 65 3.2 8.0 0.00 0.00 0.00 72 1021.7
20260507085535 2 61 3.2 8.0 0.00 0.00 0.00 72 1021.7
20260507085035 3 78 3.2 8.0 0.00 0.00 0.00 71 1021.7
20260507084554 3 57 3.2 8.0 0.00 0.00 0.00 71 1021.6
20260507084036 3 62 3.2 8.0 0.00 0.00 0.00 71 1021.6
20260507083536 3 67 4.8 8.0 0.00 0.00 0.00 70 1021.5
20260507083050 3 69 4.8 8.0 0.00 0.00 0.00 69 1021.5
20260507082534 3 46 4.8 6.4 0.00 0.00 0.00 69 1021.6
20260507082034 3 66 3.2 6.4 0.00 0.00 0.00 68 1021.6
20260507081550 4 81 3.2 6.4 0.00 0.00 0.00 67 1021.6
20260507081035 4 63 1.6 6.4 0.00 0.00 0.00 67 1021.5
20260507080535 4 63 4.8 6.4 0.00 0.00 0.00 66 1021.5
20260507080056 5 48 1.6 4.8 0.00 0.00 0.00 66 1021.5
20260507075534 5 12 1.6 4.8 0.00 0.00 0.00 66 1021.5
20260507075034 5 5 0.0 12.9 0.00 0.00 0.00 66 1021.4
20260507074550 5 0 1.6 12.9 0.00 0.00 0.00 66 1021.4
20260507074035 5 352 3.2 12.9 0.00 0.00 0.00 66 1021.3
20260507073537 5 360 3.2 12.9 0.00 0.00 0.00 67 1021.4
20260507073045 4 350 4.8 14.5 0.00 0.00 0.00 68 1021.3
20260507072536 4 345 3.2 14.5 0.00 0.00 0.00 69 1021.1
20260507072037 4 355 4.8 14.5 0.00 0.00 0.00 69 1021.1
20260507071554 3 342 4.8 9.7 0.00 0.00 0.00 69 1021.0
20260507071035 3 338 3.2 8.0 0.00 0.00 0.00 68 1021.0
20260507070535 3 341 1.6 4.8 0.00 0.00 0.00 66 1021.0
20260507070101 4 0 0.0 4.8 0.00 0.00 0.00 65 1020.9
20260507065534 4 0 0.0 4.8 0.00 0.00 0.00 66 1020.8
20260507065035 4 0 0.0 4.8 0.00 0.00 0.00 66 1020.9
20260507064549 4 0 0.0 4.8 0.00 0.00 0.00 64 1020.8
20260507064035 5 128 1.6 4.8 0.00 0.00 0.00 65 1020.8
20260507063535 5 0 0.0 3.2 0.00 0.00 0.00 64 1020.8
20260507063052 5 35 0.0 3.2 0.00 0.00 0.00 64 1020.7
20260507062536 5 0 0.0 3.2 0.00 0.00 0.00 64 1020.7
20260507062034 5 0 0.0 3.2 0.00 0.00 0.00 64 1020.6
20260507061544 5 0 0.0 3.2 0.00 0.00 0.00 64 1020.6
20260507061035 5 0 0.0 3.2 0.00 0.00 0.00 64 1020.5
20260507060534 5 9 0.0 4.8 0.00 0.00 0.00 65 1020.5
20260507060104 5 0 0.0 4.8 0.00 0.00 0.00 64 1020.4
20260507055535 5 347 0.0 4.8 0.00 0.00 0.00 64 1020.4
20260507055034 5 0 1.6 4.8 0.00 0.00 0.00 64 1020.3
20260507054552 5 19 0.0 6.4 0.00 0.00 0.00 64 1020.3
20260507054035 5 53 1.6 6.4 0.00 0.00 0.00 63 1020.3
20260507053535 5 96 3.2 4.8 0.00 0.00 0.00 62 1020.2
20260507053053 5 76 3.2 6.4 0.00 0.00 0.00 62 1020.0
20260507052539 5 110 3.2 6.4 0.00 0.00 0.00 61 1020.0
20260507052035 6 105 4.8 6.4 0.00 0.00 0.00 60 1020.0
20260507051550 6 109 3.2 6.4 0.00 0.00 0.00 59 1020.0
20260507051035 6 165 0.0 4.8 0.00 0.00 0.00 59 1019.9
20260507050535 6 0 0.0 6.4 0.00 0.00 0.00 58 1019.9
20260507050052 6 0 1.6 6.4 0.00 0.00 0.00 58 1019.9
20260507045535 7 186 1.6 4.8 0.00 0.03 0.00 59 1019.8
20260507045035 7 0 0.0 3.2 0.00 0.03 0.00 59 1019.7
20260507044548 7 0 0.0 3.2 0.00 0.03 0.00 59 1019.7
20260507044035 7 0 0.0 8.0 0.00 0.03 0.00 59 1019.7
20260507043535 7 5 1.6 9.7 0.00 0.03 0.00 59 1019.5
20260507043055 7 15 3.2 9.7 0.00 0.03 0.00 59 1019.6
20260507042534 7 348 3.2 8.0 0.00 0.03 0.00 58 1019.6
20260507042034 7 0 0.0 3.2 0.00 0.03 0.00 58 1019.5
20260507041550 7 275 0.0 4.8 0.00 0.03 0.00 59 1019.5
20260507041034 7 0 0.0 9.7 0.00 0.03 0.00 58 1019.4
20260507040535 7 0 1.6 12.9 0.00 0.03 0.00 59 1019.4
20260507040052 7 323 4.8 12.9 0.00 0.03 0.00 58 1019.2
20260507035534 7 350 6.4 16.1 0.00 0.03 0.00 58 1019.0
20260507035034 7 323 6.4 16.1 0.00 0.03 0.00 58 1018.8
20260507034555 8 335 9.7 16.1 0.00 0.03 0.00 58 1018.7
20260507034036 8 348 8.0 16.1 0.00 0.03 0.00 57 1018.6
20260507033535 8 352 9.7 19.3 0.00 0.03 0.00 57 1018.6
20260507033049 8 332 9.7 22.5 0.00 0.03 0.00 56 1018.4
20260507032536 8 13 12.9 22.5 0.00 0.03 0.00 56 1018.4
20260507032034 8 360 12.9 20.9 0.00 0.03 0.00 55 1018.3
20260507031610 8 340 12.9 20.9 0.00 0.03 0.00 54 1018.2
20260507031035 9 352 9.7 19.3 0.00 0.03 0.00 53 1018.0
20260507030536 9 348 12.9 19.3 0.00 0.03 0.00 52 1017.9
20260507030052 10 344 8.0 16.1 0.00 0.03 0.00 50 1017.8
20260507025534 10 351 9.7 16.1 0.00 0.03 0.00 49 1017.8
20260507025034 10 360 6.4 16.1 0.00 0.03 0.00 47 1017.7
20260507024556 10 346 8.0 16.1 0.00 0.03 0.00 46 1017.7
20260507024035 11 348 4.8 16.1 0.00 0.03 0.00 46 1017.5
20260507023535 11 352 8.0 16.1 0.00 0.03 0.00 44 1017.4
20260507023047 11 46 4.8 17.7 0.00 0.03 0.00 42 1017.2
20260507022535 12 360 8.0 17.7 0.00 0.03 0.00 41 1017.2
20260507022034 12 5 8.0 27.4 0.00 0.03 0.00 39 1016.9
20260507021557 12 21 8.0 37.0 0.00 0.03 0.00 37 1016.6
20260507021036 13 325 8.0 37.0 0.00 0.03 0.00 34 1016.4